MB7UEL Weather Reports


time (UTC)temp
F
wind
direction
speed
knots
gust
knots
rain 1hr
in
rain 24hr
in
rain mn
in
humidity
%
barometer
mb
20260503020506 48 49 13.9 18.2 0.00 0.06 0.00 1015.0
20260503013506 48 47 13.9 18.2 0.00 0.06 0.00 1016.0
20260503010506 48 47 13.9 18.2 0.00 0.06 0.00 1016.0
20260503003506 48 47 13.9 18.2 0.00 0.06 0.00 1016.0
20260503000506 48 49 13.0 17.4 0.00 0.06 0.00 1016.0
20260502233505 48 51 12.2 15.6 0.00 0.06 0.00 1016.0
20260502230505 48 51 12.2 15.6 0.00 0.06 0.00 1016.0
20260502223505 48 50 12.2 14.8 0.00 0.06 0.00 1016.0
20260502220505 48 50 12.2 14.8 0.00 0.06 0.00 1016.0
20260502213505 48 48 12.2 15.6 0.00 0.06 0.00 1016.0
20260502210505 48 48 12.2 15.6 0.00 0.06 0.00 1016.0
20260502203506 48 45 13.0 15.6 0.00 0.06 0.00 1016.0
20260502200506 48 45 13.0 15.6 0.00 0.06 0.00 1016.0
20260502193506 49 46 10.4 13.0 0.00 0.06 0.00 1015.0
20260502190506 49 46 10.4 13.0 0.00 0.06 0.00 1015.0
20260502183506 50 76 7.0 8.7 0.00 0.06 0.00 1015.0
20260502180506 51 69 9.6 11.3 0.00 0.06 0.00 1014.0
20260502170506 53 66 1.7 3.5 0.00 0.06 0.00 1014.0
20260502163505 53 307 3.5 4.3 0.00 0.06 0.00 1015.0
20260502160505 53 307 3.5 4.3 0.00 0.06 0.00 1015.0
20260502150505 53 260 6.1 7.8 0.00 0.06 0.00 1015.0
20260502130506 54 253 4.3 5.2 0.00 0.06 0.00 1015.0
20260502123506 54 258 6.1 7.0 0.00 0.06 0.00 1015.0
20260502120506 54 280 5.2 6.1 0.00 0.06 0.00 1015.0
20260502113506 53 250 5.2 6.1 0.00 0.06 0.00 1015.0
20260502110506 53 250 5.2 6.1 0.00 0.06 0.00 1015.0
20260502103505 52 255 6.1 7.0 0.00 0.06 0.00 1015.0
20260502100505 52 255 6.1 7.0 0.00 0.06 0.00 1015.0
20260502090505 52 263 7.8 9.6 0.00 0.00 0.00 1015.0
20260502070506 50 250 9.6 12.2 0.00 0.00 0.00 1015.0
20260502063506 50 243 9.6 11.3 0.00 0.00 0.00 1015.0
20260502060506 49 244 10.4 13.0 0.00 0.00 0.00 1015.0
20260502053506 49 242 9.6 11.3 0.00 0.00 0.00 1015.0
20260502050506 49 242 9.6 11.3 0.00 0.00 0.00 1015.0
20260502043505 49 245 9.6 11.3 0.00 0.00 0.00 1015.0
20260502040506 49 245 9.6 11.3 0.00 0.00 0.00 1015.0
20260502033505 49 246 8.7 11.3 0.00 0.00 0.00 1016.0
20260502030505 49 246 8.7 11.3 0.00 0.00 0.00 1016.0
20260502023505 50 242 8.7 11.3 0.00 0.00 0.00 1017.0